Terminal Aerodrome Forecast
Issued by NWS Hastings, NE

Home | Current Version | Previous Version | Text Only | Print | Product List | Glossary On
Versions: 1 2 3 4 5 6 7 8 9 10 11 12 13 14 15 16 17 18 19 20 21 22 23 24 25 26 27 28 29 30 31 32 33 34 35 36 37 38 39 40
000
FTUS43 KGID 180540
TAFGRI
TAF
KGRI 180540Z 1806/1906 12005KT P6SM SCT015 OVC025
     FM180700 12006KT 4SM -SN BR SCT005 OVC010
     FM181200 15005KT 6SM BR OVC007
     FM181800 21005KT P6SM SCT007 BKN015
     FM190000 21005KT 6SM BR SCT007 BKN015=

USA.gov is the U.S. government's official web portal to all federal, state and local government web resources and services.